Notices

What's New in latest Release from April 7th, 2021:

- Updated Glossary, including Speed of Maximum Gust, and Total Hourly Precipitation

- Updated national and regional climate services offices contacts and prices information

- Addition of station inventory lists for 1981-2010, 1971-2000, and 1961-1990 Normals.

If you haven't already, please take our survey and provide feedback about our website: https://eccc.sondage-survey.ca/f/LanguageSelection.aspx?s=442ca660-fcf1-47c0-95a9-59707d6fd709

Hourly Data Report for January 18, 2021

SHEARWATER RCS
NOVA SCOTIA
Current Station Operator: ECCC - MSC

44°37'47.000" N
63°30'48.000" W
24.00 m
8205092
71264
AAW

Download Data

Hourly Data (January 2021)
Hourly Data Report for January 18, 2021
TIME
LST
Temp Definition
°C
Dew Point Definition
°C
Rel Hum Definition
%
Precip. Amount Definition
mm

Wind Dir Definition
10's deg

Wind Spd Definition
km/h
Visibility Definition
km
Stn Press Definition
kPa
Hmdx Definition


Wind Chill Definition


Weather Definition


00:00 3.9 -0.4 74 0.0 24 21   99.27     LegendNANA
01:00 3.6 -0.2 76 0.0 23 22   99.33     LegendNANA
02:00 3.7 -0.3 75 0.0 24 19   99.42     LegendNANA
03:00 3.7 -0.4 75 0.0 24 15   99.50     LegendNANA
04:00 3.6 -1.0 72 0.0 23 16   99.51     LegendNANA
05:00 3.4 -1.5 70 0.0 23 15   99.55     LegendNANA
06:00 3.2 -1.3 72 0.0 23 14   99.61     LegendNANA
07:00 3.1 -1.3 73 0.0 22 12   99.65     LegendNANA
08:00 3.2 -0.2 78 0.0 23 18   99.67     LegendNANA
09:00 3.3 0.2 80 0.0 23 14   99.72     LegendNANA
10:00 3.8 0.2 77 0.0 23 15   99.71     LegendNANA
11:00 4.2 0.7 78 0.0 22 21   99.67     LegendNANA
12:00 4.6 1.3 79 0.0 22 24   99.60     LegendNANA
13:00 5.5 0.3 69 0.0 23 26   99.51     LegendNANA
14:00 6.2 0.7 68 0.0 23 23   99.48     LegendNANA
15:00 4.0 1.1 81 0.0 22 19   99.52     LegendNANA
16:00 4.8 0.4 74 0.0 23 17   99.53     LegendNANA
17:00 3.6 0.5 80 0.0 22 17   99.58     LegendNANA
18:00 3.0 0.2 82 0.0 22 13   99.61     LegendNANA
19:00 3.2 0.1 80 0.0 23 16   99.65     LegendNANA
20:00 2.9 -0.5 78 0.0 24 15   99.66     LegendNANA
21:00 2.3 -1.0 79 0.0 25 13   99.66     LegendNANA
22:00 1.9 -1.5 78 0.0 24 12   99.67     LegendNANA
23:00 1.8 -1.5 79 0.0 25 8   99.67     LegendNANA

Notes on Data Quality.

Legend

  • E = Estimated
  • M = Missing
  • NA = Not Available*
  • [empty] = Indicates an unobserved value
Date modified: